Flag for Germany Weather past 2 weeks in Wismar, Mecklenburg-Western Pomerania, Germany

Now
54 °F

Passing clouds.


Feels Like: 54 °F
Forecast: 55 / 73 °F
Wind: 2 mph from East

Location: Schwerin

Current Time: Sep 3, 2014 at 9:01:31 AM

Latest Report: Sep 3, 2014 at 8:00 AM


Visibility: 16 mi

Pressure: 30.34 "Hg

Humidity: 93%

Dew point: 52 °F

Location of WismarLocation

Historic Weather in Wismar — Graph

°F

Wismar temperature yesterday

Maximum temperature yesterday: 70 °F (at 6:00 PM)
Minimum temperature yesterday: 55 °F (at 7:00 AM)
Average temperature yesterday: 62 °F

Past Weeks' High & Low Weather Summary

 TemperatureHumidityPressure
High73 °F (Aug 28, 6:00 PM)100% (Aug 26, 6:00 AM)30.34 "Hg (Aug 26, 6:00 AM)
Low44 °F (Aug 26, 7:00 AM)34% (Aug 28, 6:00 PM)29.71 "Hg (Aug 19, 6:00 PM)
Average57 °F78%29.94 "Hg
* Reported Aug 19 8:00 AM — Sep 3 8:00 AM, Wismar, Weather by CustomWeather, © 2014

Note: Actual official high and low records may vary slightly from our data, if they occured in-between our weather recording intervals... More about our weather records

Advertising

Wismar weather history for previous 24 hours

 ConditionsComfort  
Time TempWeatherWind HumidityBarometerVisibility
8:00 AM
Sep 3
54 °FPassing clouds.2 mph93%30.34 "Hg16 mi
7:00 AM51 °FPartly sunny.2 mph97%30.34 "Hg12 mi
6:00 AM52 °FPassing clouds.2 mph96%30.32 "Hg10 mi
4:00 AM52 °FPassing clouds.2 mph96%30.32 "Hg13 mi
3:00 AM53 °FPassing clouds.2 mph95%30.32 "Hg17 mi
2:00 AM54 °FPassing clouds.2 mph93%30.32 "Hg19 mi
1:00 AM55 °FOvercast.2 mph89%30.32 "Hg31 mi
12:00 AM56 °FPassing clouds.2 mph84%30.32 "Hg37 mi
10:00 PM
Sep 2
59 °FPassing clouds.3 mph69%30.29 "Hg37 mi
9:00 PM61 °FPassing clouds.3 mph63%30.28 "Hg37 mi
8:00 PM64 °FOvercast.5 mph58%30.25 "Hg43 mi
7:00 PM67 °FScattered clouds.3 mph48%30.24 "Hg37 mi
6:00 PM70 °FPartly sunny.3 mph43%30.22 "Hg40 mi
4:00 PM68 °FOvercast.3 mph42%30.22 "Hg28 mi
3:00 PM69 °FPartly sunny.5 mph44%30.21 "Hg25 mi
2:00 PM68 °FScattered clouds.5 mph50%30.21 "Hg28 mi
1:00 PM66 °FPassing clouds.6 mph56%30.21 "Hg22 mi
12:00 PM66 °FScattered clouds.5 mph60%30.21 "Hg25 mi
10:00 AM61 °FPartly sunny.3 mph76%30.19 "Hg16 mi
9:00 AM56 °FScattered clouds.3 mph87%30.18 "Hg19 mi
Weather by CustomWeather, © 2014

See weather overviewHow to use our weather pages